Snowfall_Accumulation
0.0 0.0 0.0 0.0 0.0 0.0 0.0 0.0 0.0 0.0 0.0 0.0 0.0 0.0 0.0 0.0 0.0 0.0 0.0 0.0 0.0 0.0 0.0 0.0 0.0 0.0 0.0 0.0 0.0 0.0 0.0 0.0 0.0 0.0 0.0 0.0 0.0 0.0
0.0 0.0 0.0 0.0 0.0 0.0 0.0 0.0 0.0 0.0 0.0 0.0 0.0 0.0 0.0 0.0 0.0 0.0 0.0 0.0 0.0 0.0 0.0 0.0 0.0 0.0 0.0 0.0 0.0 0.0 0.0 0.0 0.0 0.0 0.0 0.0 0.0 0.0
0.0 0.0 0.0 0.0 0.0 0.0 0.0 0.0 0.0 0.0 0.0 0.0 0.0 0.2 0.2 0.3 0.1 0.0 0.0 0.0 0.0 0.0 0.0 0.0 0.0 0.0 0.0 0.0 0.0 0.0 0.0 0.0 0.0 0.0 0.0 0.0 0.0 0.0
0.0 0.0 0.0 0.0 0.0 0.0 0.2 0.2 0.0 0.0 0.7 0.1 0.1 0.9 1.6 1.0 0.4 0.1 0.0 0.0 0.0 0.0 0.0 0.0 0.0 0.0 0.0 0.0 0.0 0.0 0.0 0.0 0.0 0.0 0.0 0.0 0.0 0.0
0.0 0.0 0.0 0.0 0.0 0.0 0.7 0.4 1.0 0.4 1.0 0.8 0.5 0.9 0.5 0.2 0.1 0.1 0.0 0.0 0.0 0.0 0.0 0.0 0.0 0.0 0.0 0.0 0.0 0.0 0.0 0.0 0.0 0.0 0.0 0.0 0.0 0.0
0.0 0.0 0.0 0.0 0.9 0.9 1.3 0.8 0.4 0.7 0.7 0.5 0.3 0.8 0.7 0.2 0.2 0.1 0.1 0.0 0.0 0.0 0.0 0.0 0.0 0.0 0.0 0.0 0.0 0.0 0.0 0.0 0.0 0.0 0.0 0.0 0.0 0.0
1.0 0.6 1.6 1.7 1.0 1.1 0.7 0.6 0.4 0.4 1.2 3.1 2.0 1.3 0.4 0.1 0.1 0.0 0.0 0.0 0.2 0.0 0.0 0.0 0.0 0.0 0.0 0.0 0.0 0.0 0.0 0.0 0.0 0.0 0.0 0.0 0.0 0.0
1.6 1.3 1.4 0.9 0.5 0.0 0.2 0.0 0.0 1.1 3.0 3.0 3.7 0.5 0.0 0.0 0.0 0.0 1.8 1.2 1.2 0.0 0.1 0.1 0.0 0.0 0.0 0.0 0.0 0.0 0.0 0.0 0.0 0.0 0.0 0.0 0.0 0.0
2.3 1.8 0.8 0.1 0.3 0.3 0.0 0.0 0.5 0.2 0.4 0.1 0.1 0.0 0.1 0.2 2.4 2.6 0.7 1.4 1.2 0.0 0.2 0.6 0.0 0.0 0.0 0.0 0.0 0.0 0.0 0.0 0.0 0.0 0.0 0.0 0.0 0.0
1.4 0.2 0.2 0.0 0.0 0.1 0.3 1.5 0.6 0.1 0.0 0.0 0.0 0.1 0.5 0.3 0.3 1.4 1.5 0.9 0.3 0.1 0.1 2.3 0.1 0.1 0.0 0.0 0.0 0.0 0.0 0.0 0.0 0.0 0.0 0.0 0.0 0.0
0.2 0.0 0.0 0.1 0.0 0.0 0.6 1.0 0.3 0.0 0.0 0.0 0.2 0.1 0.0 0.0 0.0 1.0 2.1 2.6 2.2 0.0 0.0 0.9 0.2 0.0 0.0 0.0 0.0 0.0 0.0 0.0 0.0 0.0 0.0 0.0 0.0 0.0
0.1 0.0 0.0 0.1 0.0 0.2 0.4 0.1 0.1 0.0 0.5 0.5 0.0 0.0 0.0 0.0 0.0 0.1 2.3 9.3 4.7 4.4 0.0 4.2 1.1 1.4 7.8 0.5 0.0 0.0 0.0 0.0 0.0 0.0 0.0 0.0 0.0 0.3
0.5 0.3 0.0 0.1 0.2 0.1 0.0 0.0 0.1 0.1 0.1 0.0 0.0 0.0 0.0 0.0 0.1 0.1 0.7 6.7 12.3 8.4 0.0 8.0 11.5 4.0 11.9 6.7 2.2 2.0 0.0 0.0 0.9 0.7 0.3 0.6 0.6 0.7
0.8 0.4 0.3 0.4 0.0 0.0 0.0 0.1 0.1 0.1 0.0 0.0 0.0 0.1 0.2 0.2 0.1 0.1 0.2 0.7 1.6 6.2 2.0 3.9 21.8 9.1 17.7 13.0 4.0 2.1 2.4 2.7 3.7 6.9 6.8 3.8 1.2 0.8
0.1 0.4 0.3 0.0 0.0 0.0 0.0 0.0 0.0 0.0 0.0 0.7 0.4 0.3 0.3 0.1 0.2 0.3 0.0 0.0 0.0 2.1 2.4 3.1 8.5 10.0 14.1 14.5 8.2 3.3 5.2 2.1 5.9 8.9 6.3 4.9 5.2 3.8
0.3 1.0 0.0 0.0 0.0 0.0 0.0 0.0 0.0 0.0 1.1 1.8 2.2 1.6 1.5 2.2 3.1 3.0 4.8 3.3 6.0 5.3 4.9 5.0 6.6 8.6 11.7 5.2 8.6 5.4 4.0 9.8 5.0 5.8 5.1 3.9 3.2 2.7
0.7 0.3 0.2 0.7 0.7 0.3 1.4 0.5 0.0 1.9 3.0 3.2 5.1 6.7 5.6 4.8 4.4 4.3 5.6 7.8 10.5 6.4 7.0 6.6 4.9 6.0 5.5 5.4 8.8 4.2 5.2 5.8 6.4 7.7 6.3 5.3 4.7 5.0
2.9 2.8 1.8 2.4 2.2 2.6 1.6 4.5 4.5 3.7 4.1 6.3 7.8 8.0 9.6 8.9 8.5 6.9 7.0 8.4 9.3 6.9 7.0 7.0 8.3 8.0 5.8 3.2 3.2 7.8 6.1 6.3 7.0 6.9 6.8 9.8 6.7 6.6
1.9 1.6 2.6 3.5 4.1 3.8 4.7 5.4 6.5 4.4 5.8 8.4 10.3 10.0 10.9 10.7 10.0 9.4 8.4 8.3 7.4 5.9 6.0 6.4 8.8 13.3 17.7 7.2 3.5 3.4 13.3 9.5 6.9 6.3 5.4 6.4 8.6 6.8
0.6 1.2 2.3 2.8 3.6 4.4 5.6 6.5 6.6 6.3 6.6 6.0 7.9 7.5 10.1 12.9 11.2 9.8 8.5 9.9 9.4 5.8 5.5 4.9 5.2 11.2 24.1 20.0 16.4 8.2 4.4 10.2 11.4 10.7 8.6 5.5 5.2 0.4
1.0 1.9 2.1 3.2 4.5 5.4 5.8 6.2 6.5 6.9 7.3 9.2 7.1 7.4 6.9 11.7 8.9 6.0 8.5 7.1 9.1 7.6 7.3 3.3 2.7 3.8 9.4 12.2 12.0 5.3 5.6 3.5 2.8 12.4 12.0 11.3 5.9 3.6
1.7 3.0 3.1 3.5 4.7 6.1 7.5 7.7 7.9 5.7 5.9 5.8 6.4 8.0 8.4 11.0 11.7 8.6 7.8 10.1 6.9 6.7 7.1 4.0 3.8 5.2 7.3 10.6 7.9 5.4 3.9 3.2 2.3 1.3 2.4 9.1 21.0 29.2
3.2 3.6 3.5 4.1 5.1 6.6 7.6 7.8 7.0 5.3 5.8 7.7 7.7 7.9 8.4 11.4 7.1 8.0 7.9 7.1 8.3 9.4 6.9 7.1 4.8 4.3 4.3 6.6 6.6 5.4 3.2 2.1 3.2 3.7 4.8 2.8 3.9 4.7